1596405638,2020-08-03 00:00,35.06,986.73,1012.51,214,29.24,12.25,-35,1
1596405698,2020-08-03 00:01,35.06,986.72,1012.51,214,29.25,12.26,-36,1
1596405758,2020-08-03 00:02,35.02,986.70,1012.48,214,29.24,12.23,-43,1
1596405819,2020-08-03 00:03,34.85,986.71,1012.49,214,29.24,12.16,-44,1
1596405879,2020-08-03 00:04,35.00,986.70,1012.48,214,29.24,12.22,-45,1
1596405939,2020-08-03 00:05,35.00,986.68,1012.47,214,29.24,12.22,-32,1
1596405999,2020-08-03 00:06,34.96,986.66,1012.44,214,29.23,12.20,-33,1
1596406060,2020-08-03 00:07,35.09,986.67,1012.45,214,29.23,12.26,-40,1
1596406120,2020-08-03 00:08,34.92,986.62,1012.40,214,29.23,12.18,-47,1
1596406180,2020-08-03 00:09,34.92,986.61,1012.39,214,29.22,12.17,-35,1
1596406241,2020-08-03 00:10,34.88,986.66,1012.44,214,29.23,12.16,-44,1
1596406301,2020-08-03 00:11,34.87,986.62,1012.41,214,29.23,12.16,-39,1
1596406361,2020-08-03 00:12,34.82,986.62,1012.41,214,29.23,12.14,-39,1
1596406421,2020-08-03 00:13,34.79,986.61,1012.39,214,29.23,12.12,-40,1
1596406482,2020-08-03 00:14,34.79,986.62,1012.40,214,29.22,12.12,-26,1
1596406542,2020-08-03 00:15,34.89,986.62,1012.41,214,29.22,12.16,-37,1
1596406602,2020-08-03 00:16,34.76,986.65,1012.44,214,29.22,12.10,-34,1
1596406663,2020-08-03 00:17,34.75,986.68,1012.46,214,29.21,12.09,-44,1
1596406723,2020-08-03 00:18,34.74,986.69,1012.47,214,29.21,12.08,-43,1
1596406783,2020-08-03 00:19,34.71,986.66,1012.44,214,29.20,12.06,-42,1
1596406844,2020-08-03 00:20,34.65,986.67,1012.45,214,29.21,12.04,-33,1
1596406904,2020-08-03 00:21,34.68,986.68,1012.47,214,29.21,12.06,-32,1
1596406964,2020-08-03 00:22,34.68,986.69,1012.47,214,29.21,12.06,-44,1
1596407024,2020-08-03 00:23,34.68,986.71,1012.49,214,29.20,12.05,-46,1
1596407085,2020-08-03 00:24,34.66,986.70,1012.48,214,29.20,12.04,-30,1
1596407145,2020-08-03 00:25,34.67,986.69,1012.47,214,29.20,12.05,-33,1
1596407205,2020-08-03 00:26,34.67,986.68,1012.46,214,29.19,12.04,-44,1
1596407266,2020-08-03 00:27,34.67,986.70,1012.48,214,29.20,12.04,-39,1
1596407326,2020-08-03 00:28,34.76,986.69,1012.47,214,29.19,12.07,-32,1
1596407386,2020-08-03 00:29,34.68,986.66,1012.45,214,29.20,12.05,-43,1
1596407446,2020-08-03 00:30,34.72,986.67,1012.46,214,29.20,12.06,-30,1
1596407507,2020-08-03 00:31,34.70,986.69,1012.47,214,29.19,12.05,-34,1
1596407567,2020-08-03 00:32,34.75,986.69,1012.48,214,29.19,12.07,-36,1
1596407627,2020-08-03 00:33,34.73,986.69,1012.47,214,29.20,12.07,-30,1
1596407688,2020-08-03 00:34,34.63,986.68,1012.46,214,29.19,12.02,-31,1
1596407748,2020-08-03 00:35,34.75,986.71,1012.49,214,29.19,12.07,-35,1
1596407808,2020-08-03 00:36,34.76,986.67,1012.46,214,29.19,12.07,-37,1
1596407868,2020-08-03 00:37,34.76,986.66,1012.45,214,29.18,12.07,-29,1
1596407929,2020-08-03 00:38,34.77,986.66,1012.45,214,29.18,12.07,-40,1
1596407989,2020-08-03 00:39,34.79,986.65,1012.43,214,29.18,12.08,-39,1
1596408049,2020-08-03 00:40,34.80,986.67,1012.46,214,29.18,12.09,-45,1
1596408110,2020-08-03 00:41,34.81,986.65,1012.44,214,29.18,12.09,-34,1
1596408170,2020-08-03 00:42,34.85,986.67,1012.45,214,29.18,12.10,-36,1
1596408230,2020-08-03 00:43,34.88,986.67,1012.46,214,29.18,12.12,-46,1
1596408290,2020-08-03 00:44,34.90,986.69,1012.47,214,29.19,12.14,-37,1
1596408351,2020-08-03 00:45,34.92,986.68,1012.46,214,29.18,12.14,-29,1
1596408411,2020-08-03 00:46,34.96,986.66,1012.44,214,29.18,12.15,-43,1
1596408471,2020-08-03 00:47,34.97,986.68,1012.46,214,29.18,12.16,-39,1
1596408532,2020-08-03 00:48,35.01,986.65,1012.43,214,29.18,12.18,-38,1
1596408592,2020-08-03 00:49,35.03,986.67,1012.45,214,29.17,12.18,-32,1
1596408652,2020-08-03 00:50,35.04,986.69,1012.47,214,29.18,12.19,-40,1
1596408712,2020-08-03 00:51,35.07,986.68,1012.46,214,29.17,12.19,-41,1
1596408773,2020-08-03 00:52,35.08,986.67,1012.45,214,29.18,12.20,-26,1
1596408833,2020-08-03 00:53,35.08,986.66,1012.44,214,29.17,12.20,-39,1
1596408893,2020-08-03 00:54,35.11,986.67,1012.45,214,29.18,12.22,-39,1
1596408954,2020-08-03 00:55,35.12,986.66,1012.44,214,29.18,12.22,-47,1
1596409014,2020-08-03 00:56,35.16,986.67,1012.45,214,29.17,12.23,-41,1
1596409074,2020-08-03 00:57,35.17,986.65,1012.43,214,29.17,12.23,-36,1
1596409135,2020-08-03 00:58,35.18,986.65,1012.44,214,29.17,12.24,-40,1
1596409195,2020-08-03 00:59,35.22,986.64,1012.42,214,29.17,12.26,-38,1
1596409255,2020-08-03 01:00,35.25,986.65,1012.43,214,29.16,12.26,-37,1
1596409315,2020-08-03 01:01,35.28,986.64,1012.43,214,29.16,12.27,-38,1
1596409376,2020-08-03 01:02,35.29,986.62,1012.41,214,29.17,12.29,-33,1
1596409436,2020-08-03 01:03,35.07,986.62,1012.40,214,29.16,12.18,-34,1
1596409496,2020-08-03 01:04,35.34,986.60,1012.39,214,29.16,12.30,-31,1
1596409556,2020-08-03 01:05,35.35,986.60,1012.38,214,29.16,12.31,-38,1
1596409617,2020-08-03 01:06,35.38,986.57,1012.35,214,29.16,12.32,-34,1
1596409677,2020-08-03 01:07,35.43,986.57,1012.35,214,29.16,12.34,-43,1
1596409737,2020-08-03 01:08,35.40,986.60,1012.38,214,29.16,12.33,-42,1
1596409798,2020-08-03 01:09,35.40,986.55,1012.34,214,29.16,12.33,-38,1
1596409858,2020-08-03 01:10,35.42,986.58,1012.36,214,29.16,12.33,-40,1
1596409918,2020-08-03 01:11,35.43,986.54,1012.32,214,29.16,12.34,-36,1
1596409979,2020-08-03 01:12,35.43,986.54,1012.32,214,29.15,12.33,-36,1
1596410039,2020-08-03 01:13,35.45,986.54,1012.32,214,29.16,12.35,-34,1
1596410099,2020-08-03 01:14,35.49,986.58,1012.36,214,29.16,12.36,-40,1
1596410159,2020-08-03 01:15,35.50,986.57,1012.36,214,29.15,12.36,-33,1
1596410220,2020-08-03 01:17,35.52,986.60,1012.39,214,29.15,12.37,-31,1
1596410280,2020-08-03 01:18,35.53,986.60,1012.38,214,29.15,12.37,-33,1
1596410340,2020-08-03 01:19,35.55,986.62,1012.40,214,29.15,12.38,-40,1
1596410401,2020-08-03 01:20,35.58,986.63,1012.41,214,29.15,12.40,-39,1
1596410461,2020-08-03 01:21,35.61,986.62,1012.40,214,29.15,12.41,-31,1
1596410521,2020-08-03 01:22,35.71,986.61,1012.40,214,29.15,12.45,-28,1
1596410581,2020-08-03 01:23,35.63,986.60,1012.38,214,29.14,12.41,-32,1
1596410642,2020-08-03 01:24,35.65,986.59,1012.37,214,29.15,12.42,-37,1
1596410702,2020-08-03 01:25,35.63,986.59,1012.37,214,29.15,12.41,-30,1
1596410762,2020-08-03 01:26,35.65,986.59,1012.37,214,29.15,12.42,-38,1
1596410823,2020-08-03 01:27,35.65,986.59,1012.37,214,29.15,12.42,-38,1
1596410883,2020-08-03 01:28,35.67,986.57,1012.36,214,29.15,12.43,-39,1
1596410943,2020-08-03 01:29,35.67,986.56,1012.35,214,29.15,12.43,-36,1
1596411003,2020-08-03 01:30,35.68,986.55,1012.33,214,29.16,12.45,-37,1
1596411064,2020-08-03 01:31,35.74,986.51,1012.30,214,29.15,12.46,-36,1
1596411124,2020-08-03 01:32,35.79,986.51,1012.29,214,29.15,12.49,-30,1
1596411184,2020-08-03 01:33,35.73,986.50,1012.28,214,29.16,12.47,-41,1
1596411245,2020-08-03 01:34,35.75,986.49,1012.27,214,29.16,12.48,-38,1
1596411305,2020-08-03 01:35,35.63,986.50,1012.28,214,29.15,12.42,-45,1
1596411365,2020-08-03 01:36,35.81,986.50,1012.29,214,29.15,12.49,-32,1
1596411425,2020-08-03 01:37,35.82,986.51,1012.29,214,29.16,12.50,-46,1
1596411486,2020-08-03 01:38,35.83,986.48,1012.27,214,29.15,12.50,-35,1
1596411546,2020-08-03 01:39,35.85,986.48,1012.26,214,29.16,12.52,-35,1
1596411606,2020-08-03 01:40,35.91,986.48,1012.26,214,29.16,12.54,-40,1
1596411667,2020-08-03 01:41,35.85,986.47,1012.26,214,29.15,12.51,-33,1
1596411727,2020-08-03 01:42,35.86,986.46,1012.25,214,29.15,12.51,-35,1
1596411787,2020-08-03 01:43,35.86,986.44,1012.23,214,29.15,12.51,-40,1
1596411848,2020-08-03 01:44,35.87,986.46,1012.25,214,29.15,12.52,-40,1
1596411908,2020-08-03 01:45,35.91,986.47,1012.26,214,29.15,12.53,-36,1
1596411968,2020-08-03 01:46,35.90,986.43,1012.21,214,29.15,12.53,-39,1
1596412028,2020-08-03 01:47,35.93,986.43,1012.21,214,29.15,12.54,-43,1
1596412089,2020-08-03 01:48,35.97,986.42,1012.20,214,29.14,12.55,-32,1
1596412149,2020-08-03 01:49,35.82,986.41,1012.19,214,29.14,12.49,-31,1
1596412209,2020-08-03 01:50,35.97,986.45,1012.23,214,29.14,12.55,-48,1
1596412270,2020-08-03 01:51,36.01,986.40,1012.18,214,29.13,12.56,-41,1
1596412330,2020-08-03 01:52,35.86,986.41,1012.20,214,29.13,12.50,-33,1
1596412390,2020-08-03 01:53,36.01,986.40,1012.19,214,29.13,12.56,-38,1
1596412450,2020-08-03 01:54,36.04,986.40,1012.19,214,29.14,12.58,-44,1
1596412511,2020-08-03 01:55,36.05,986.41,1012.20,214,29.14,12.58,-38,1
1596412571,2020-08-03 01:56,36.12,986.38,1012.16,214,29.14,12.62,-35,1
1596412631,2020-08-03 01:57,36.07,986.39,1012.18,214,29.13,12.58,-29,1
1596412692,2020-08-03 01:58,36.07,986.38,1012.16,214,29.13,12.58,-42,1
1596412752,2020-08-03 01:59,36.09,986.36,1012.14,214,29.13,12.59,-34,1
1596412812,2020-08-03 02:00,36.09,986.36,1012.14,214,29.14,12.60,-33,1
1596412872,2020-08-03 02:01,36.11,986.34,1012.12,214,29.13,12.60,-42,1
1596412933,2020-08-03 02:02,36.12,986.35,1012.13,214,29.13,12.61,-40,1
1596412993,2020-08-03 02:03,36.12,986.36,1012.14,214,29.13,12.61,-39,1
1596413053,2020-08-03 02:04,36.16,986.37,1012.15,214,29.13,12.62,-35,1
1596413114,2020-08-03 02:05,36.29,986.37,1012.15,214,29.13,12.68,-33,1
1596413174,2020-08-03 02:06,36.18,986.34,1012.12,214,29.13,12.63,-31,1
1596413234,2020-08-03 02:07,36.19,986.35,1012.13,214,29.13,12.64,-28,1
1596413294,2020-08-03 02:08,36.22,986.33,1012.12,214,29.12,12.64,-36,1
1596413355,2020-08-03 02:09,36.20,986.35,1012.13,214,29.13,12.64,-38,1
1596413415,2020-08-03 02:10,36.20,986.35,1012.13,214,29.13,12.64,-41,1
1596413475,2020-08-03 02:11,36.20,986.35,1012.13,214,29.13,12.64,-43,1
1596413536,2020-08-03 02:12,36.21,986.35,1012.13,214,29.13,12.65,-37,1
1596413596,2020-08-03 02:13,36.22,986.36,1012.14,214,29.13,12.65,-42,1
1596413656,2020-08-03 02:14,36.22,986.34,1012.12,214,29.13,12.65,-37,1
1596413716,2020-08-03 02:15,36.23,986.33,1012.11,214,29.13,12.65,-39,1
1596413777,2020-08-03 02:16,36.26,986.33,1012.12,214,29.13,12.66,-32,1
1596413837,2020-08-03 02:17,36.28,986.32,1012.11,214,29.13,12.67,-36,1
1596413897,2020-08-03 02:18,36.29,986.29,1012.08,214,29.12,12.67,-43,1
1596413957,2020-08-03 02:19,36.32,986.28,1012.06,214,29.12,12.68,-42,1
1596414017,2020-08-03 02:20,36.16,986.28,1012.07,214,29.11,12.60,-32,1
1596414077,2020-08-03 02:21,36.27,986.30,1012.08,214,29.12,12.66,-41,1
1596414137,2020-08-03 02:22,36.34,986.27,1012.05,214,29.12,12.69,-35,1
1596414197,2020-08-03 02:23,36.37,986.26,1012.05,214,29.12,12.70,-33,1
1596414257,2020-08-03 02:24,36.39,986.26,1012.04,214,29.12,12.71,-43,1
1596414317,2020-08-03 02:25,36.38,986.26,1012.04,214,29.12,12.71,-37,1
1596414378,2020-08-03 02:26,36.42,986.25,1012.04,214,29.12,12.72,-38,1
1596414438,2020-08-03 02:27,36.61,986.21,1011.99,214,29.12,12.80,-38,1
1596414498,2020-08-03 02:28,36.43,986.22,1012.00,214,29.11,12.72,-31,1
1596414558,2020-08-03 02:29,36.44,986.23,1012.02,214,29.11,12.72,-32,1
1596414618,2020-08-03 02:30,36.43,986.25,1012.03,214,29.11,12.72,-42,1
1596414678,2020-08-03 02:31,36.45,986.28,1012.06,214,29.12,12.74,-41,1
1596414738,2020-08-03 02:32,36.40,986.27,1012.05,214,29.12,12.71,-41,1
1596414798,2020-08-03 02:33,36.47,986.32,1012.11,214,29.11,12.74,-39,1
1596414858,2020-08-03 02:34,36.48,986.32,1012.10,214,29.11,12.74,-36,1
1596414918,2020-08-03 02:35,36.50,986.31,1012.09,214,29.11,12.75,-41,1
1596414979,2020-08-03 02:36,36.51,986.32,1012.10,214,29.12,12.76,-40,1
1596415039,2020-08-03 02:37,36.51,986.31,1012.09,214,29.11,12.75,-32,1
1596415099,2020-08-03 02:38,36.54,986.28,1012.07,214,29.11,12.77,-35,1
1596415159,2020-08-03 02:39,36.55,986.28,1012.07,214,29.10,12.76,-40,1
1596415219,2020-08-03 02:40,36.56,986.28,1012.07,214,29.11,12.77,-43,1
1596415279,2020-08-03 02:41,36.57,986.24,1012.03,214,29.10,12.77,-39,1
1596415339,2020-08-03 02:42,36.60,986.26,1012.04,214,29.10,12.78,-34,1
1596415399,2020-08-03 02:43,36.58,986.24,1012.03,214,29.10,12.78,-41,1
1596415459,2020-08-03 02:44,36.62,986.24,1012.02,214,29.10,12.79,-44,1
1596415520,2020-08-03 02:45,36.81,986.22,1012.01,214,29.11,12.88,-38,1
1596415580,2020-08-03 02:46,36.61,986.19,1011.97,214,29.10,12.78,-34,1
1596415640,2020-08-03 02:47,36.62,986.20,1011.98,214,29.11,12.80,-35,1
1596415700,2020-08-03 02:48,36.63,986.19,1011.97,214,29.10,12.79,-38,1
1596415760,2020-08-03 02:49,36.64,986.19,1011.97,214,29.10,12.80,-29,1
1596415820,2020-08-03 02:50,36.65,986.18,1011.97,214,29.11,12.81,-35,1
1596415880,2020-08-03 02:51,36.67,986.19,1011.97,214,29.10,12.81,-36,1
1596415940,2020-08-03 02:52,36.70,986.18,1011.96,214,29.10,12.82,-43,1
1596416000,2020-08-03 02:53,36.68,986.18,1011.96,214,29.10,12.82,-27,1
1596416060,2020-08-03 02:54,36.68,986.15,1011.93,214,29.10,12.82,-34,1
1596416121,2020-08-03 02:55,36.68,986.14,1011.92,214,29.09,12.81,-41,1
1596416181,2020-08-03 02:56,36.83,986.12,1011.90,214,29.10,12.88,-40,1
1596416241,2020-08-03 02:57,36.72,986.07,1011.86,214,29.09,12.82,-32,1
1596416301,2020-08-03 02:58,36.83,986.11,1011.89,214,29.10,12.88,-26,1
1596416361,2020-08-03 02:59,36.74,986.13,1011.91,214,29.09,12.83,-33,1
1596416421,2020-08-03 03:00,36.74,986.10,1011.88,214,29.09,12.83,-28,1
1596416481,2020-08-03 03:01,36.74,986.13,1011.91,214,29.09,12.83,-40,1
1596416541,2020-08-03 03:02,36.75,986.10,1011.89,214,29.10,12.84,-32,1
1596416601,2020-08-03 03:03,36.75,986.12,1011.90,214,29.10,12.84,-46,1
1596416661,2020-08-03 03:04,36.74,986.14,1011.92,214,29.09,12.83,-38,1
1596416724,2020-08-03 03:05,36.78,986.14,1011.93,214,29.09,12.85,-41,1
1596416785,2020-08-03 03:06,36.78,986.15,1011.94,214,29.09,12.85,-40,1
1596416845,2020-08-03 03:07,36.77,986.11,1011.89,214,29.09,12.84,-38,1
1596416905,2020-08-03 03:08,36.79,986.11,1011.90,214,29.09,12.85,-40,1
1596416966,2020-08-03 03:09,36.80,986.10,1011.88,214,29.09,12.86,-31,1
1596417026,2020-08-03 03:10,36.83,986.09,1011.87,214,29.09,12.87,-33,1
1596417086,2020-08-03 03:11,36.84,986.10,1011.88,214,29.09,12.87,-40,1
1596417146,2020-08-03 03:12,36.84,986.06,1011.84,214,29.09,12.87,-25,1
1596417207,2020-08-03 03:13,36.85,986.05,1011.84,214,29.08,12.87,-35,1
1596417267,2020-08-03 03:14,36.89,986.05,1011.83,214,29.07,12.88,-39,1
1596417327,2020-08-03 03:15,36.89,986.04,1011.83,214,29.08,12.88,-40,1
1596417388,2020-08-03 03:16,36.90,986.03,1011.81,214,29.08,12.89,-47,1
1596417448,2020-08-03 03:17,37.00,986.01,1011.80,214,29.07,12.92,-33,1
1596417508,2020-08-03 03:18,36.92,986.01,1011.80,214,29.07,12.89,-45,1
1596417568,2020-08-03 03:19,36.95,985.98,1011.77,214,29.08,12.91,-39,1
1596417629,2020-08-03 03:20,36.91,985.99,1011.77,214,29.08,12.89,-31,1
1596417689,2020-08-03 03:21,36.91,985.99,1011.77,214,29.08,12.89,-46,1
1596417749,2020-08-03 03:22,36.92,985.97,1011.75,214,29.07,12.89,-43,1
1596417810,2020-08-03 03:23,36.74,985.92,1011.70,214,29.07,12.81,-48,1
1596417870,2020-08-03 03:24,36.95,985.91,1011.69,214,29.08,12.91,-36,1
1596417930,2020-08-03 03:25,36.95,985.90,1011.68,214,29.07,12.90,-46,1
1596417990,2020-08-03 03:26,36.96,985.87,1011.65,214,29.07,12.90,-25,1
1596418050,2020-08-03 03:27,36.98,985.89,1011.67,214,29.07,12.91,-37,1
1596418110,2020-08-03 03:28,36.98,985.84,1011.62,214,29.06,12.90,-49,1
1596418170,2020-08-03 03:29,36.98,985.85,1011.63,214,29.06,12.90,-37,1
1596418231,2020-08-03 03:30,37.01,985.83,1011.61,214,29.04,12.90,-32,1
1596418291,2020-08-03 03:31,37.00,985.83,1011.61,214,29.07,12.92,-38,1
1596418351,2020-08-03 03:32,37.01,985.85,1011.63,214,29.05,12.91,-50,1
1596418411,2020-08-03 03:33,37.03,985.87,1011.65,214,29.06,12.93,-50,1
1596418472,2020-08-03 03:34,37.00,985.85,1011.63,214,29.05,12.90,-34,1
1596418532,2020-08-03 03:35,37.03,985.85,1011.63,214,29.06,12.93,-46,1
1596418592,2020-08-03 03:36,37.05,985.86,1011.64,214,29.06,12.93,-33,1
1596418653,2020-08-03 03:37,37.04,985.83,1011.61,214,29.05,12.92,-34,1
1596418713,2020-08-03 03:38,37.04,985.86,1011.64,214,29.05,12.92,-36,1
1596418773,2020-08-03 03:39,37.07,985.84,1011.63,214,29.05,12.93,-42,1
1596418833,2020-08-03 03:40,37.05,985.84,1011.62,214,29.05,12.93,-40,1
1596418894,2020-08-03 03:41,37.20,985.83,1011.61,214,29.05,12.99,-48,1
1596418954,2020-08-03 03:42,37.10,985.84,1011.62,214,29.06,12.95,-47,1
1596419014,2020-08-03 03:43,37.09,985.80,1011.58,214,29.05,12.94,-39,1
1596419075,2020-08-03 03:44,37.10,985.77,1011.55,214,29.05,12.94,-37,1
1596419135,2020-08-03 03:45,37.11,985.75,1011.53,214,29.05,12.95,-44,1
1596419195,2020-08-03 03:46,37.22,985.77,1011.56,214,29.04,12.99,-45,1
1596419255,2020-08-03 03:47,37.14,985.78,1011.56,214,29.04,12.95,-45,1
1596419316,2020-08-03 03:48,37.09,985.75,1011.54,214,29.05,12.94,-47,1
1596419376,2020-08-03 03:49,37.14,985.74,1011.52,214,29.05,12.96,-41,1
1596419436,2020-08-03 03:50,37.14,985.73,1011.51,214,29.04,12.95,-40,1
1596419497,2020-08-03 03:51,37.15,985.69,1011.47,214,29.05,12.97,-44,1
1596419557,2020-08-03 03:52,37.15,985.68,1011.46,214,29.04,12.96,-42,1
1596419617,2020-08-03 03:53,37.06,985.65,1011.44,214,29.04,12.92,-38,1
1596419677,2020-08-03 03:54,37.15,985.65,1011.43,214,29.04,12.96,-32,1
1596419738,2020-08-03 03:55,37.22,985.61,1011.40,214,29.04,12.98,-41,1
1596419798,2020-08-03 03:56,37.16,985.62,1011.41,214,29.04,12.96,-40,1
1596419858,2020-08-03 03:57,37.17,985.63,1011.41,214,29.03,12.96,-44,1
1596419919,2020-08-03 03:58,37.18,985.65,1011.43,214,29.04,12.97,-46,1
1596419979,2020-08-03 03:59,37.19,985.62,1011.40,214,29.02,12.95,-29,1
1596420039,2020-08-03 04:00,37.20,985.66,1011.44,214,29.03,12.97,-41,1
1596420099,2020-08-03 04:01,37.19,985.66,1011.44,214,29.03,12.96,-41,1
1596420159,2020-08-03 04:02,37.22,985.67,1011.45,214,29.04,12.98,-38,1
1596420222,2020-08-03 04:03,37.19,985.67,1011.45,214,29.03,12.96,-42,1
1596420282,2020-08-03 04:04,37.23,985.66,1011.44,214,29.02,12.97,-41,1
1596420343,2020-08-03 04:05,37.23,985.72,1011.51,214,29.02,12.97,-47,1
1596420403,2020-08-03 04:06,37.24,985.70,1011.48,214,29.02,12.98,-43,1
1596420463,2020-08-03 04:07,37.23,985.77,1011.55,214,29.01,12.96,-35,1
1596420523,2020-08-03 04:08,37.27,985.77,1011.56,214,29.02,12.99,-40,1
1596420583,2020-08-03 04:09,37.26,985.77,1011.56,214,29.02,12.98,-38,1
1596420644,2020-08-03 04:10,37.25,985.81,1011.59,214,29.02,12.98,-38,1
1596420704,2020-08-03 04:11,37.24,985.82,1011.61,214,29.01,12.97,-45,1
1596420764,2020-08-03 04:12,37.26,985.81,1011.60,214,29.01,12.98,-45,1
1596420824,2020-08-03 04:13,36.91,985.86,1011.64,214,29.02,12.84,-35,1
1596420884,2020-08-03 04:14,37.26,985.85,1011.64,214,29.02,12.98,-45,1
1596420945,2020-08-03 04:15,37.26,985.83,1011.61,214,29.01,12.98,-36,1
1596421005,2020-08-03 04:16,37.26,985.82,1011.60,214,29.01,12.98,-40,1
1596421065,2020-08-03 04:17,37.27,985.77,1011.55,214,29.02,12.99,-44,1
1596421126,2020-08-03 04:18,37.15,985.76,1011.54,214,29.01,12.93,-34,1
1596421186,2020-08-03 04:19,37.29,985.76,1011.55,214,29.01,12.99,-47,1
1596421246,2020-08-03 04:20,37.28,985.71,1011.49,214,29.00,12.98,-36,1
1596421306,2020-08-03 04:21,37.28,985.74,1011.53,214,29.01,12.98,-37,1
1596421367,2020-08-03 04:22,37.30,985.73,1011.51,214,29.00,12.98,-39,1
1596421427,2020-08-03 04:23,37.30,985.70,1011.48,214,29.00,12.98,-39,1
1596421487,2020-08-03 04:24,37.69,985.70,1011.48,214,29.00,13.14,-39,1
1596421548,2020-08-03 04:25,37.30,985.70,1011.49,214,29.00,12.98,-40,1
1596421608,2020-08-03 04:26,37.13,985.69,1011.48,214,29.00,12.91,-32,1
1596421668,2020-08-03 04:27,37.32,985.72,1011.50,214,29.00,12.99,-40,1
1596421728,2020-08-03 04:28,37.32,985.72,1011.50,214,29.00,12.99,-37,1
1596421789,2020-08-03 04:29,37.33,985.73,1011.51,214,29.00,12.99,-41,1
1596421849,2020-08-03 04:30,37.15,985.71,1011.49,214,29.00,12.92,-44,1
1596421909,2020-08-03 04:31,37.34,985.74,1011.53,214,29.01,13.01,-36,1
1596421970,2020-08-03 04:32,37.33,985.71,1011.49,214,29.00,12.99,-43,1
1596422030,2020-08-03 04:33,37.35,985.72,1011.50,214,29.00,13.00,-37,1
1596422090,2020-08-03 04:34,37.35,985.68,1011.46,214,29.00,13.00,-36,1
1596422150,2020-08-03 04:35,37.35,985.67,1011.45,214,28.99,12.99,-44,1
1596422211,2020-08-03 04:36,37.35,985.66,1011.44,214,28.99,12.99,-45,1
1596422271,2020-08-03 04:37,37.36,985.67,1011.46,214,28.98,12.99,-44,1
1596422331,2020-08-03 04:38,37.37,985.64,1011.42,214,28.98,12.99,-34,1
1596422392,2020-08-03 04:39,37.38,985.62,1011.41,214,28.97,12.99,-43,1
1596422452,2020-08-03 04:40,37.38,985.60,1011.39,214,28.97,12.99,-39,1
1596422512,2020-08-03 04:41,37.36,985.58,1011.36,214,28.98,12.99,-29,1
1596422573,2020-08-03 04:42,37.61,985.61,1011.39,214,28.99,13.10,-43,1
1596422633,2020-08-03 04:43,37.36,985.58,1011.37,214,28.97,12.98,-41,1
1596422693,2020-08-03 04:44,37.30,985.58,1011.36,214,28.98,12.97,-40,1
1596422754,2020-08-03 04:45,37.38,985.60,1011.38,214,28.98,13.00,-41,1
1596422814,2020-08-03 04:46,37.37,985.59,1011.37,214,28.97,12.98,-36,1
1596422874,2020-08-03 04:47,37.34,985.60,1011.38,214,28.98,12.98,-39,1
1596422935,2020-08-03 04:48,37.39,985.60,1011.38,214,28.98,13.00,-39,1
1596422995,2020-08-03 04:49,37.39,985.58,1011.36,214,28.98,13.00,-44,1
1596423055,2020-08-03 04:50,37.60,985.57,1011.36,214,28.98,13.09,-33,1
1596423115,2020-08-03 04:51,37.40,985.55,1011.33,214,28.98,13.01,-38,1
1596423176,2020-08-03 04:52,37.28,985.56,1011.35,214,28.98,12.96,-38,1
1596423236,2020-08-03 04:53,37.40,985.52,1011.30,214,28.98,13.01,-39,1
1596423296,2020-08-03 04:54,37.41,985.51,1011.29,214,28.96,12.99,-33,1
1596423357,2020-08-03 04:55,37.40,985.50,1011.28,214,28.97,13.00,-35,1
1596423417,2020-08-03 04:56,37.45,985.50,1011.29,214,28.97,13.02,-42,1
1596423477,2020-08-03 04:57,37.48,985.47,1011.26,214,28.97,13.03,-46,1
1596423538,2020-08-03 04:58,37.43,985.44,1011.22,214,28.96,13.00,-39,1
1596423598,2020-08-03 04:59,37.45,985.46,1011.25,214,28.97,13.02,-36,1
1596423658,2020-08-03 05:00,37.46,985.45,1011.24,214,28.97,13.02,-32,1
1596423718,2020-08-03 05:01,37.46,985.44,1011.22,214,28.96,13.01,-38,1
1596423779,2020-08-03 05:02,37.45,985.44,1011.22,214,28.96,13.01,-30,1
1596423839,2020-08-03 05:03,37.44,985.42,1011.21,214,28.96,13.01,-41,1
1596423899,2020-08-03 05:04,37.46,985.43,1011.22,214,28.96,13.01,-33,1
1596423960,2020-08-03 05:06,37.46,985.45,1011.23,214,28.95,13.00,-33,1
1596424020,2020-08-03 05:07,37.44,985.46,1011.24,214,28.96,13.01,-38,1
1596424080,2020-08-03 05:08,37.47,985.49,1011.27,214,28.96,13.02,-35,1
1596424140,2020-08-03 05:09,37.43,985.52,1011.30,214,28.96,13.00,-35,1
1596424201,2020-08-03 05:10,37.47,985.50,1011.28,214,28.96,13.02,-40,1
1596424261,2020-08-03 05:11,37.60,985.52,1011.30,214,28.96,13.07,-44,1
1596424321,2020-08-03 05:12,37.47,985.55,1011.33,214,28.95,13.01,-32,1
1596424382,2020-08-03 05:13,37.48,985.53,1011.32,214,28.95,13.01,-41,1
1596424442,2020-08-03 05:14,37.49,985.55,1011.33,214,28.94,13.01,-36,1
1596424502,2020-08-03 05:15,37.48,985.55,1011.33,214,28.94,13.00,-36,1
1596424563,2020-08-03 05:16,37.49,985.55,1011.33,214,28.95,13.01,-35,1
1596424623,2020-08-03 05:17,37.50,985.57,1011.35,214,28.95,13.02,-45,1
1596424683,2020-08-03 05:18,37.50,985.56,1011.34,214,28.94,13.01,-39,1
1596424743,2020-08-03 05:19,37.50,985.61,1011.39,214,28.95,13.02,-39,1
1596424804,2020-08-03 05:20,37.51,985.58,1011.36,214,28.94,13.01,-42,1
1596424864,2020-08-03 05:21,37.51,985.64,1011.42,214,28.94,13.02,-40,1
1596424924,2020-08-03 05:22,37.51,985.67,1011.45,214,28.94,13.02,-31,1
1596424985,2020-08-03 05:23,37.53,985.70,1011.49,214,28.94,13.02,-35,1
1596425045,2020-08-03 05:24,37.53,985.71,1011.49,214,28.94,13.02,-48,1
1596425105,2020-08-03 05:25,37.52,985.75,1011.53,214,28.93,13.01,-44,1
1596425165,2020-08-03 05:26,37.53,985.78,1011.56,214,28.93,13.02,-32,1
1596425226,2020-08-03 05:27,37.53,985.79,1011.57,214,28.94,13.02,-34,1
1596425286,2020-08-03 05:28,37.53,985.77,1011.56,214,28.94,13.02,-36,1
1596425346,2020-08-03 05:29,37.53,985.72,1011.50,214,28.94,13.02,-36,1
1596425407,2020-08-03 05:30,37.55,985.69,1011.47,214,28.94,13.03,-34,1
1596425467,2020-08-03 05:31,37.52,985.67,1011.45,214,28.94,13.02,-34,1
1596425527,2020-08-03 05:32,37.53,985.65,1011.44,214,28.94,13.02,-44,1
1596425587,2020-08-03 05:33,37.55,985.65,1011.43,214,28.93,13.02,-35,1
1596425648,2020-08-03 05:34,37.54,985.61,1011.39,214,28.92,13.01,-41,1
1596425708,2020-08-03 05:35,37.54,985.61,1011.40,214,28.92,13.01,-38,1
1596425768,2020-08-03 05:36,37.55,985.60,1011.38,214,28.93,13.02,-34,1
1596425829,2020-08-03 05:37,37.55,985.57,1011.36,214,28.93,13.02,-44,1
1596425889,2020-08-03 05:38,37.55,985.57,1011.35,214,28.92,13.01,-31,1
1596425949,2020-08-03 05:39,37.55,985.58,1011.36,214,28.93,13.02,-42,1